Вернуться в каталог

THORAD AGENA D DEB

АктивенPO
NORAD 4918·DEBRIS·🇺🇸 United States

Запущен Apr 8, 1970 с Vandenberg Space Force Base

Loading…

Ближайшие Пролёты

TLE

Source: Space-Track
1 04918U 70025FQ  26229.81573922  .00000288  00000-0  65897-3 0  9990
2 04918  99.4904   6.6103 0160865 254.0116 104.3236 13.29641227720825

Отслеживайте THORAD AGENA D DEB в реальном времени с AllMySat

Download on the App Store